Yeovilton, United Kingdom

1:06 PM BST on June 22, 2017 (GMT +0100)
Yeovil Radar Navy

Weather History for EGDY - November, 2012

Change the Weather History Date:

Tuesday, November 6, 2012

  Actual Average Record
Temperature  
Mean Temperature 39 °F -  
Max Temperature 52 °F 49 °F 62 °F (2015)
Min Temperature 26 °F 37 °F 26 °F (2012)
Degree Days  
Heating Degree Days 26    
Moisture  
Dew Point 38 °F    
Average Humidity 87    
Maximum Humidity 100    
Minimum Humidity 62    
Precipitation  
Precipitation 0.01 in - - ()
Sea Level Pressure  
Sea Level Pressure 30.20 in    
Wind  
Wind Speed 4 mph ()    
Max Wind Speed 16 mph    
Max Gust Speed -    
Visibility 5.2 miles    
Events Fog , Rain    
Averages and records for this station are not official NWS values.
T = Trace of Precipitation, MM = Missing Value Source: Averaged Metar Reports

Daily Weather History Graph

Daily Weather History Graph

Search for Another Location

Airport or City:

Trip Planner

Search our weather history database for the weather conditions in past years. The results will help you decide how hot, cold, wet, or windy it might be!

Date:

Astronomy

Nov. 06, 2012 Rise Set
Actual Time 7:11 AM GMT 4:35 PM GMT
Civil Twilight 6:36 AM GMT 5:11 PM GMT
Nautical Twilight 5:57 AM GMT 5:50 PM GMT
Astronomical Twilight 5:18 AM GMT 6:28 PM GMT
Moon 11:06 PM GMT (11/6) 12:52 PM GMT (11/6)
Length of Visible Light 10h 34m
Length of Day
9h 23m
Waning Gibbous, 55% of the Moon is Illuminated
Nov 6
Waning Gibbous
Nov 7
Last Quarter
Nov 13
New
Nov 20
First Quarter
Nov 28
Full

Hourly Weather History & Observations

Time (GMT) Temp. Windchill Dew Point Humidity Pressure Visibility Wind Dir Wind Speed Gust Speed Precip Events Conditions
12:50 AM 30.2 °F - 28.4 °F 93% 30.06 in 3.7 mi ENE 1.2 mph - N/A   Clear
1:50 AM 30.2 °F - 28.4 °F 93% 30.09 in 3.1 mi ESE 2.3 mph - N/A   Partly Cloudy
2:50 AM 29 °F - 28 °F 97% 30.11 in 4 mi ESE 2.3 mph - -   Mist
2:50 AM 30.2 °F - 28.4 °F 93% 30.09 in 3.7 mi ESE 2.3 mph - N/A   Partly Cloudy
3:50 AM 28.4 °F - 26.6 °F 93% 30.09 in 3.1 mi NE 1.2 mph - N/A   Clear
4:50 AM 28.4 °F - 28.4 °F 100% 30.12 in 2.2 mi SE 1.2 mph - N/A Fog Fog
5:50 AM 28 °F - 27 °F 96% 30.16 in 2 mi East 2.3 mph - - Fog Light Fog
5:50 AM 28.4 °F - 26.6 °F 93% 30.15 in 1.9 mi East 2.3 mph - N/A Fog Fog
6:50 AM 26.6 °F - 26.6 °F 100% 30.15 in 0.2 mi East 1.2 mph - N/A Fog Fog
7:50 AM 28.4 °F - 28.4 °F 100% 30.18 in 0.3 mi ESE 1.2 mph - N/A Fog Light Freezing Fog
8:50 AM 32 °F - 31 °F 96% 30.22 in 1 mi East 1.2 mph - - Fog Light Fog
8:50 AM 32.0 °F - 32.0 °F 100% 30.21 in 1.2 mi East 1.2 mph - N/A   Scattered Clouds
9:50 AM 42.8 °F - 39.2 °F 87% 30.21 in 2.8 mi South 1.2 mph - N/A   Haze
9:58 AM 44.6 °F - 41.0 °F 87% 30.21 in 4.3 mi SSE 1.2 mph - N/A   Haze
10:17 AM 44.6 °F - 41.0 °F 87% 30.21 in 5.0 mi East 2.3 mph - N/A   Haze
10:50 AM 46.4 °F 44.3 °F 42.8 °F 87% 30.21 in 6.2 mi West 4.6 mph - N/A   Scattered Clouds
11:50 AM 51 °F - 43 °F 65% 30.23 in 9 mi West 12.7 mph - -   Partly Cloudy
11:50 AM 51.8 °F - 42.8 °F 71% 30.21 in 6.2 mi West 12.7 mph - N/A   Scattered Clouds
12:50 PM 51.8 °F - 39.2 °F 62% 30.21 in 6.2 mi WNW 16.1 mph - N/A   Scattered Clouds
1:50 PM 51.8 °F - 42.8 °F 71% 30.21 in 6.2 mi WNW 10.4 mph - N/A   Mostly Cloudy
2:50 PM 51 °F - 44 °F 70% 30.22 in 22 mi West 10.4 mph - -   Mostly Cloudy
2:50 PM 51.8 °F - 44.6 °F 76% 30.21 in 6.2 mi West 10.4 mph - N/A   Scattered Clouds
3:50 PM 48.2 °F - 46.4 °F 93% 30.21 in 6.2 mi West 9.2 mph - N/A Rain Light Rain
4:50 PM 48.2 °F - 46.4 °F 93% 30.21 in 6.2 mi West 6.9 mph - N/A   Mostly Cloudy
5:50 PM 48 °F - 45 °F 87% 30.24 in 16 mi West 6.9 mph - -   Partly Cloudy
5:50 PM 48.2 °F - 44.6 °F 87% 30.21 in 6.2 mi West 6.9 mph - N/A   Mostly Cloudy
6:32 PM 48.2 °F - 44.6 °F 87% 30.24 in 6.2 mi West 9.2 mph - N/A   Mostly Cloudy
6:50 PM 48.2 °F - 44.6 °F 87% 30.24 in 6.2 mi West 6.9 mph - N/A   Mostly Cloudy
7:50 PM 48.2 °F - 44.6 °F 87% 30.24 in 6.2 mi West 6.9 mph - N/A   Mostly Cloudy
8:50 PM 46 °F - 43 °F 87% 30.26 in 11 mi West 9.2 mph - -   Scattered Clouds
8:50 PM 46.4 °F 41.9 °F 42.8 °F 87% 30.24 in 6.2 mi West 9.2 mph - N/A   Partly Cloudy
9:35 PM 46.4 °F 41.9 °F 42.8 °F 87% 30.24 in 6.2 mi West 9.2 mph - N/A   Scattered Clouds
9:50 PM 46.4 °F 42.9 °F 42.8 °F 87% 30.24 in 6.2 mi West 6.9 mph - N/A   Scattered Clouds
10:50 PM 46.4 °F 41.5 °F 42.8 °F 87% 30.24 in 6.2 mi West 10.4 mph - N/A   Scattered Clouds
11:50 PM 48 °F - 45 °F 85% 30.29 in 10 mi West 9.2 mph - -   Mostly Cloudy
11:50 PM 48.2 °F - 44.6 °F 87% 30.27 in 6.2 mi West 9.2 mph - N/A   Mostly Cloudy